Regional Weather Roundup
Issued by NWS

Home | Current Version | Previous Version | Text Only | Print | Product List | Glossary Off
Versions: 1 2 3 4 5 6 7 8 9 10 11 12 13 14 15 16 17 18 19 20 21 22 23 24 25 26 27 28 29 30 31 32 33 34 35 36 37 38 39 40 41 42 43 44 45 46 47 48 49 50

799
ASUS45 KBOI 190610
RWRID

IDAHO REGIONAL WEATHER ROUNDUP
NATIONAL WEATHER SERVICE BOISE ID
1200 AM MDT THU APR 19 2018

NOTE: "FAIR" INDICATES FEW OR NO CLOUDS BELOW 12000 FEET
WITH NO SIGNIFICANT WEATHER AND/OR OBSTRUCTIONS TO VISIBILITY

IDZ012-014-190700-
SOUTHWEST IDAHO


CITY           SKY/WX    TMP DP  RH WIND       PRES   REMARKS
BOISE          CLOUDY    53  29  39 N8        29.94S
CALDWELL       CLOUDY    51  31  46 W14       29.95F
MOUNTAIN HOME  CLOUDY    50  25  38 E13       29.91F
$$

IDZ016-017-190700-
SOUTHCENTRAL IDAHO


CITY           SKY/WX    TMP DP  RH WIND       PRES   REMARKS
BURLEY         CLOUDY    45  20  36 VRB6      29.95F
JEROME         CLOUDY    45  20  36 NE16      29.95F
TWIN FALLS     CLOUDY    41  29  62 SE7       29.94F
$$

IDZ019>023-190700-
SOUTHEAST IDAHO


CITY           SKY/WX    TMP DP  RH WIND       PRES   REMARKS
IDAHO FALLS    CLOUDY    39  28  64 NE6       30.03F WCI  35
POCATELLO      CLOUDY    40  24  53 NE3       29.99F
REXBURG        CLOUDY    38  28  67 NE6       30.04F WCI  33
$$

IDZ006-010-011-018-031-032-190700-
CENTRAL IDAHO MOUNTAINS


CITY           SKY/WX    TMP DP  RH WIND       PRES   REMARKS
MCCALL         MOCLDY    37  22  54 N7        29.98F WCI  32
STANLEY          N/A     32  19  58 SW3       30.02F
SALMON         CLOUDY    49  20  31 E10       30.04F
CHALLIS        CLOUDY    45  19  35 CALM      30.02F
$$

IDZ002-004-006-007-026-190700-
NORTHERN IDAHO


CITY           SKY/WX    TMP DP  RH WIND       PRES   REMARKS
LEWISTON       CLOUDY    53  32  44 CALM      30.06F
LOWELL           N/A     45  40  82 VRB3      30.09R
COEUR D`ALENE  PTCLDY    37  29  72 NE9       30.13S WCI  30
MULLAN PASS    PTCLDY    30  19  63 SE7       30.08S WCI  23
$$




USA.gov is the U.S. government's official web portal to all federal, state and local government web resources and services.